Scott Air Force Base, IL

8:47 PM CDT on August 23, 2016 (GMT -0500)
Scott Air Force Base-Midamerica

Weather History for KBLV - July, 2013

Change the Weather History Date:

Thursday, July 4, 2013

  Actual Average Record
Temperature  
Mean Temperature 71 °F -  
Max Temperature 83 °F 89 °F 102 °F (2012)
Min Temperature 60 °F 65 °F 47 °F (1967)
Cooling Degree Days 6    
Growing Degree Days 21 (Base 50)    
Moisture  
Dew Point 63 °F    
Average Humidity 77    
Maximum Humidity 100    
Minimum Humidity 47    
Precipitation  
Precipitation 0.00 in - - ()
Sea Level Pressure  
Sea Level Pressure 30.06 in    
Wind  
Wind Speed 2 mph (ESE)    
Max Wind Speed 6 mph    
Max Gust Speed -    
Visibility 10 miles    
Events      
Averages and records for this station are not official NWS values.
T = Trace of Precipitation, MM = Missing Value Source: NWS Daily Summary

Daily Weather History Graph

Daily Weather History Graph

Search for Another Location

Airport or City:

Trip Planner

Search our weather history database for the weather conditions in past years. The results will help you decide how hot, cold, wet, or windy it might be!

Date:

Astronomy

Jul. 04, 2013 Rise Set
Actual Time 5:40 AM CDT 8:27 PM CDT
Civil Twilight 5:08 AM CDT 8:58 PM CDT
Nautical Twilight 4:29 AM CDT 9:37 PM CDT
Astronomical Twilight 3:44 AM CDT 10:22 PM CDT
Moon 2:56 AM CDT (7/4) 5:32 PM CDT (7/4)
Length of Visible Light 15h 49m
Length of Day
14h 46m
Waning Crescent, 11% of the Moon is Illuminated
Jul 4
Waning Crescent
Jul 8
New
Jul 15
First Quarter
Jul 22
Full
Jul 29
Last Quarter

Hourly Weather History & Observations

Time (CDT) Temp. Heat Index Dew Point Humidity Pressure Visibility Wind Dir Wind Speed Gust Speed Precip Events Conditions
12:58 AM 66.4 °F - 62.6 °F 88% 30.07 in 10.0 mi SSE 2.3 mph - N/A   Clear
1:58 AM 63.3 °F - 62.8 °F 98% 30.06 in 10.0 mi Calm Calm - N/A   Clear
2:58 AM 62.6 °F - 62.2 °F 99% 30.07 in 10.0 mi SSE 2.3 mph - N/A   Clear
3:58 AM 61.5 °F - 61.3 °F 99% 30.07 in 10.0 mi Calm Calm - N/A   Clear
4:23 AM 60.8 °F - 60.8 °F 100% 30.07 in 9.0 mi Calm Calm - N/A   Clear
4:58 AM 61.5 °F - 61.2 °F 99% 30.06 in 10.0 mi Calm Calm - N/A   Clear
5:03 AM 60.8 °F - 60.8 °F 100% 30.07 in 9.0 mi Calm Calm - N/A   Clear
5:18 AM 60.8 °F - 60.8 °F 100% 30.07 in 6.0 mi Calm Calm - N/A   Clear
5:58 AM 61.3 °F - 61.3 °F 100% 30.09 in 5.0 mi East 2.3 mph - N/A   Clear
6:58 AM 63.1 °F - 63.0 °F 99% 30.09 in 10.0 mi Calm Calm - N/A   Clear
7:58 AM 68.2 °F - 65.1 °F 90% 30.10 in 10.0 mi SE 3.5 mph - N/A   Clear
8:58 AM 73.0 °F - 62.1 °F 68% 30.10 in 10.0 mi South 2.3 mph - N/A   Clear
9:58 AM 76.3 °F - 63.9 °F 65% 30.10 in 10.0 mi South 4.6 mph - N/A   Clear
10:58 AM 77.9 °F - 62.8 °F 60% 30.10 in 10.0 mi SSE 3.5 mph - N/A   Clear
11:58 AM 78.8 °F - 61.2 °F 55% 30.10 in 10.0 mi ESE 4.6 mph - N/A   Clear
12:55 PM 80.8 °F 82.0 °F 62.8 °F 54% 30.09 in 10.0 mi ESE 4.6 mph - N/A   Scattered Clouds
1:55 PM 81.5 °F 82.9 °F 63.7 °F 55% 30.07 in 10.0 mi ESE 5.8 mph - N/A   Scattered Clouds
2:55 PM 82.2 °F 83.7 °F 64.0 °F 54% 30.06 in 10.0 mi Variable 4.6 mph - N/A   Scattered Clouds
2:56 PM 82.4 °F 83.9 °F 64.4 °F 54% 30.06 in 10.0 mi ENE 5.8 mph - N/A   Scattered Clouds
3:56 PM 82.0 °F 83.1 °F 63.0 °F 52% 30.07 in 10.0 mi East 3.5 mph - N/A   Clear
4:58 PM 82.6 °F 82.9 °F 60.6 °F 47% 30.03 in 10.0 mi East 5.8 mph - N/A   Clear
5:58 PM 82.0 °F 82.5 °F 60.6 °F 48% 30.02 in 10.0 mi East 5.8 mph - N/A   Partly Cloudy
6:58 PM 80.4 °F 81.5 °F 62.1 °F 53% 30.02 in 10.0 mi East 5.8 mph - N/A   Clear
7:58 PM 77.4 °F - 63.3 °F 62% 30.02 in 10.0 mi East 3.5 mph - N/A   Clear
8:58 PM 73.8 °F - 62.2 °F 67% 30.03 in 10.0 mi East 5.8 mph - N/A   Clear
9:58 PM 72.1 °F - 67.1 °F 84% 30.04 in 10.0 mi East 2.3 mph - N/A   Clear
10:58 PM 69.3 °F - 68.2 °F 96% 30.04 in 10.0 mi East 3.5 mph - N/A   Clear
11:58 PM 68.7 °F - 68.4 °F 99% 30.05 in 9.0 mi NE 1.2 mph - N/A   Clear